Your browser is no longer supported. Please, upgrade your browser.
Filter
Ticker Owner Relationship Date Transaction Cost #Shares Value ($) #Shares Total SEC Form 4
BMISMILEY BEVERLY L PVP-ControllerJul 26Sale45.209,911447,97268,926Jul 28 10:54 AM
BMISMILEY BEVERLY L PVP-ControllerJul 27Sale45.079,439425,45159,487Jul 28 10:54 AM
BMISMILEY BEVERLY L PVP-ControllerJul 27Sale45.0026011,7001,000Jul 28 10:54 AM
ORABronicki Investments Ltd.Member of 10% owner group.Jul 18Sale57.70512,9433,526,959Jul 28 10:36 AM
ORABronicki Investments Ltd.Member of 10% owner group.Jul 26Sale57.003,323,431189,435,5670Jul 28 10:36 AM
ETHKATHWARI M FAROOQChairman, President & CEOJul 26Option Exercise30.8059,2111,823,6992,119,883Jul 28 10:31 AM
NWBITredway Philip MDirectorJul 26Sale16.1313,560218,66722,484Jul 28 09:46 AM
ICBKSCHNEIDER TIMOTHY J.PresidentJul 26Sale25.0054313,575110,702Jul 28 09:46 AM
SRPTINGRAM DOUGLAS SPresident & CEOJul 27Buy42.5047,0581,999,965382,058Jul 28 08:51 AM
BMTCGilbert Andrea FDirectorJul 26Option Exercise22.003,50077,00024,513Jul 28 06:41 AM
BMTCGilbert Andrea FDirectorJul 26Sale44.091,77578,26422,738Jul 28 06:41 AM
OPKFROST PHILLIP MD ET ALCEO & ChairmanJul 27Buy6.3423,600149,687163,856,943Jul 28 06:41 AM
MTDRSingleton Van H IIEVP - LandJul 25Option Exercise8.1833,750276,07598,994Jul 27 09:45 PM
INAPPark West Asset Management LLCFormer 10% OwnerJul 25Sale3.882,250,0008,723,2508,203,729Jul 27 09:32 PM
CRMBenioff MarcChairman of the Board and CEOJul 27Option Exercise39.0910,000390,92534,195,300Jul 27 08:33 PM
CRMBenioff MarcChairman of the Board and CEOJul 27Sale90.8910,000908,91134,185,300Jul 27 08:33 PM
MBFIFEIGER MITCHELLPresident and CEOJul 25Option Exercise32.8941,7141,371,973183,444Jul 27 08:32 PM
CRMRoos John VictorDirectorJul 27Sale91.3122820,81915,904Jul 27 08:27 PM
CRMMartinez MariaPres., Sales & Cust. SuccessJul 27Option Exercise52.3010,000523,00030,907Jul 27 08:21 PM
CRMMartinez MariaPres., Sales & Cust. SuccessJul 27Sale92.0010,000920,00720,907Jul 27 08:21 PM
SALMATSINGER EDWARD G IIIChief Executive OfficerJul 25Option Exercise4.854832,34343,037Jul 27 08:16 PM
SALMATSINGER EDWARD G IIIChief Executive OfficerJul 25Sale7.454833,59842,554Jul 27 08:16 PM
COBZDUMLAO TROYSVP & Chief Accounting OfficerJul 25Sale18.104938,92317,397Jul 27 07:39 PM
COBZDALTON RICHARD JEVP & Chief Operations OfficerJul 25Sale17.8010,000178,00084,082Jul 27 07:39 PM
COBZPage ScottCEO, Cobiz BankJan 30Sale17.593,53062,09365,774Jul 27 07:39 PM
COBZPage ScottCEO, Cobiz BankJul 25Sale17.754,52780,35465,546Jul 27 07:39 PM
NPTNSitler Benjamin LeeSVP, Global SalesJul 26Option Exercise3.5033,400116,900107,311Jul 27 07:32 PM
NPTNSitler Benjamin LeeSVP, Global SalesJul 26Sale8.4433,400282,01683,311Jul 27 07:32 PM
NPTNSOPHIE MICHAEL JDirectorJul 26Option Exercise4.254,00017,00018,318Jul 27 07:25 PM
NPTNSOPHIE MICHAEL JDirectorJul 26Sale8.454,00033,78414,318Jul 27 07:25 PM
SWKSGRIFFIN LIAMPresident and CEOJul 25Sale105.318,056848,39053,018Jul 27 07:00 PM
RGLDJENSEN TONY ACEO and PresidentJul 25Sale85.0025,0002,125,000155,525Jul 27 06:40 PM
RGLDWENGER STEFANCFO and TreasurerJul 25Sale85.001,12995,96559,533Jul 27 06:31 PM
FBStretch ColinVP and General CounselJul 25Sale165.29750123,96883,906Jul 27 06:31 PM
GRPNRandolfi Michael OCFOJul 25Option Exercise0.0055,0000285,608Jul 27 06:23 PM
LNNPAROD RICKPresident and CEOJul 25Option Exercise76.487,387564,921178,148Jul 27 06:10 PM
LNNPAROD RICKPresident and CEOJul 25Sale92.3130,3872,805,082147,761Jul 27 06:10 PM
LNNPAROD RICKPresident and CEOJul 26Sale90.9923,5002,138,211124,261Jul 27 06:10 PM
LNNPAROD RICKPresident and CEOJul 27Sale90.8623,5002,135,135100,761Jul 27 06:10 PM
IPIClearway Capital Management Lt10% OwnerJul 25Buy2.89315,372911,11014,314,682Jul 27 06:10 PM
IPIClearway Capital Management Lt10% OwnerJul 26Buy2.90244,911709,09114,559,593Jul 27 06:10 PM
IPIClearway Capital Management Lt10% OwnerJul 27Buy2.9032,60094,51414,592,193Jul 27 06:10 PM
NTGRCARTER MILLER JOYCELYNDirectorJul 27Sale50.003,000150,00011,409Jul 27 06:10 PM
NTGRHenry David JohnSVP, Home NetworkingJul 27Sale50.004,694234,70031,216Jul 27 06:10 PM
CRMTMAGNOLIA CAPITAL FUND, LP10% OwnerJul 25Buy37.7119,000716,401852,655Jul 27 06:05 PM
ELFBailey John P.President and CFOJul 25Sale26.186,159161,243193,554Jul 27 06:02 PM
COFFAIRBANK RICHARD DChair, CEO and PresidentJul 26Option Exercise50.9967,4193,437,6952,747,975Jul 27 06:00 PM
COFFAIRBANK RICHARD DChair, CEO and PresidentJul 25Option Exercise50.99300,00015,297,0002,980,556Jul 27 06:00 PM
COFFAIRBANK RICHARD DChair, CEO and PresidentJul 25Sale87.19300,00026,156,8872,680,556Jul 27 06:00 PM
COFFAIRBANK RICHARD DChair, CEO and PresidentJul 26Sale86.2767,4195,816,1292,680,556Jul 27 06:00 PM
BCSBARCLAYS PLC10% OwnerJul 26Sale100000.0075075,000,00030Jul 27 05:56 PM
GDDYRechterman Barbara JChief Marketing OfficerJul 25Sale43.2917,500757,49637,241Jul 27 05:51 PM
GDDYRechterman Barbara JChief Marketing OfficerJul 26Sale43.5517,500762,18637,241Jul 27 05:51 PM
RHTShander Eric RyanEVP, Chief Financial OfficerJul 26Sale99.981,521152,0709,913Jul 27 05:50 PM
GBTPATRICK DEVAL LDirectorJul 25Option Exercise11.9727,053323,73027,053Jul 27 05:49 PM
GBTPATRICK DEVAL LDirectorJul 25Sale29.6927,053803,2040Jul 27 05:49 PM
NSRAchanta VenkatChief Data & Analytics OfficerJul 25Option Exercise0.003,960028,504Jul 27 05:43 PM
HONMikkilineni KrishnaSrVP, Engineering, Ops & ITJul 25Option Exercise137.2616,2902,235,96588,887Jul 27 05:41 PM
HONSzlosek Thomas ASVP, Chief Financial OfficerJul 25Option Exercise137.268,8341,212,55511,004Jul 27 05:40 PM
HONMahoney Timothy O.President & CEO, AerospaceJul 25Option Exercise137.2627,2033,733,88487,882Jul 27 05:37 PM
HONJames Mark R.SVP HR, Comm & ProcurJul 25Option Exercise137.2619,9322,735,866138,305Jul 27 05:36 PM
HONHahn TerrencePresident and CEO, HBTJul 25Option Exercise137.264,240581,98219,192Jul 27 05:36 PM
ETFCHealy James PDirectorJul 25Buy41.975,000209,85540,792Jul 27 05:36 PM
HONAdams Katherine L.Sr. VP and General CounselJul 25Option Exercise137.2622,4853,086,291185,710Jul 27 05:34 PM
HONAdamczyk DariusPresident and CEOJul 25Option Exercise137.269,1881,261,14541,527Jul 27 05:33 PM
HPEWHITMAN MARGARET CCEOJul 26Option Exercise5.85194,8341,139,779962,433Jul 27 05:20 PM
HPEWHITMAN MARGARET CCEOJul 25Option Exercise5.85194,8341,139,779962,433Jul 27 05:20 PM
HPEWHITMAN MARGARET CCEOJul 25Sale17.89194,8343,484,606767,599Jul 27 05:20 PM
HPEWHITMAN MARGARET CCEOJul 26Sale17.75194,8343,459,180767,599Jul 27 05:20 PM
AXPSqueri Stephen JVice ChairmanJul 25Option Exercise47.0470,4513,313,697299,151Jul 27 05:15 PM
AXPSqueri Stephen JVice ChairmanJul 25Sale85.4194,7928,096,185204,359Jul 27 05:15 PM
DCIXPeter Gyllenhammar ABFormer 10% owner(1)Jul 26Sale0.23350,00080,5000Jul 27 05:13 PM
MYOKBauer JakeSee RemarksJul 25Sale15.024,33365,06080,545Jul 27 05:11 PM
MYOKGIANAKAKOS ANASTASIOSPresident and CEOJul 25Option Exercise1.5131,85048,094541,151Jul 27 05:11 PM
MYOKGIANAKAKOS ANASTASIOSPresident and CEOJul 25Sale15.0032,988494,902508,163Jul 27 05:11 PM
AEHRPOSEDEL RHEA JDirectorJul 27Sale4.141,5006,210899,214Jul 27 05:10 PM
IRMBrown Stuart BEVP & Chief Financial OfficerJul 25Option Exercise0.008,74708,275Jul 27 05:06 PM
ABTALLEN HUBERT LExecutive Vice PresidentJul 25Option Exercise26.704,600122,808105,479Jul 27 05:03 PM
ABTALLEN HUBERT LExecutive Vice PresidentJul 25Sale50.794,600233,647100,879Jul 27 05:03 PM
LBAIDEUTSCH EDWARD BDirectorJul 25Sale20.005,000100,00018,443Jul 27 05:00 PM
ESSAOlson Gary SPresident and CEOJul 25Option Exercise12.3510,000123,500112,913Jul 27 05:00 PM
DWCHTacelli KenChief Operating OfficerJul 25Sale11.1816,909189,04368,091Jul 27 05:00 PM
DWCHOSBORNE RICHARD DE JDirectorJul 26Option Exercise3.4625,00086,500388,502Jul 27 05:00 PM
DWCHOSBORNE RICHARD DE JDirectorJul 25Option Exercise3.4625,00086,500380,502Jul 27 05:00 PM
DWCHOSBORNE RICHARD DE JDirectorJul 25Sale10.9017,000185,300363,502Jul 27 05:00 PM
DWCHOSBORNE RICHARD DE JDirectorJul 26Sale11.4017,000193,800371,502Jul 27 05:00 PM
LCGulati SameerChief Operations OfficerJul 25Option Exercise0.0015,7250265,657Jul 27 04:52 PM
LCGulati SameerChief Operations OfficerJul 26Sale5.088,30542,182257,352Jul 27 04:52 PM
COTVWilliams J DouglasCEO and DirectorJul 25Sale42.148,364352,4592,893,337Jul 27 04:50 PM
COTVWilliams J DouglasCEO and DirectorJul 26Sale42.528,364355,6372,884,973Jul 27 04:50 PM
BLWCITIGROUP INC10% OwnerJul 25Sale25000.001,28032,000,0002,500Jul 27 04:48 PM
MGNXBonvini EzioSr VP, Research & CSOJul 26Option Exercise1.2353,26465,248146,658Jul 27 04:47 PM
APOTIGER GLOBAL MANAGEMENT LLC10% OwnerJul 25Buy27.973,20089,49133,399,809Jul 27 04:45 PM
APOTIGER GLOBAL MANAGEMENT LLC10% OwnerJul 26Buy27.9653,0001,481,88033,452,809Jul 27 04:45 PM
RFGale Fournier J. IIISEVP & GCJul 25Sale14.5935,825522,633109,318Jul 27 04:45 PM
RFPeters Scott M.SEVPJul 26Sale14.6113,689199,996147,528Jul 27 04:45 PM
BLWCITIGROUP INC10% OwnerJul 25Sale25000.002406,000,000772Jul 27 04:44 PM
ALRMKerzner DanielChief Product OfficerJul 26Sale37.0418,500685,24011,065Jul 27 04:40 PM
HIFRTEACHERS INSURANCE & ANNUITY A10% OwnerJul 27Sale22.6575,0001,698,6604,870,093Jul 27 04:39 PM
ALRMHutz DavidChief Systems ArchitectJul 25Sale37.433,500131,005127,522Jul 27 04:38 PM
GBNKGoss Cathy PEVP & CCOJul 25Sale26.823,793101,72866,292Jul 27 04:38 PM
IDNAWM Investment Company, Inc.10% OwnerJul 25Sale3.534001,4131,529,474Jul 27 04:37 PM
IDNAWM Investment Company, Inc.10% OwnerJul 26Sale3.413,13510,6911,526,339Jul 27 04:37 PM
IDNAWM Investment Company, Inc.10% OwnerJul 27Sale3.435001,7131,525,839Jul 27 04:37 PM
JNPRMolinaro VincentEVP Chief Customer OfficerJul 25Sale30.005,031150,9300Jul 27 04:31 PM
CFRXBLECH ISAACDirectorJul 25Buy1.2416,00019,84016,000Jul 27 04:29 PM
FCBORAN STUART ISecretaryJul 25Option Exercise21.003,00063,00010,104Jul 27 04:27 PM
FCBORAN STUART ISecretaryJul 25Sale48.103,000144,3037,104Jul 27 04:27 PM
CVLTCAROLAN BRIANVP Finance and CFOJul 25Option Exercise11.128,00088,96082,471Jul 27 04:26 PM
CVLTCAROLAN BRIANVP Finance and CFOJul 25Sale62.958,000503,60074,471Jul 27 04:26 PM
BOTJDOYLE JULIE PDirectorJul 26Buy15.462,00030,9122,000Jul 27 04:26 PM
PTCDIBONA ANTHONYEVP Renewal SalesJul 26Sale55.882,205123,21222,228Jul 27 04:25 PM
AGMFaivre-Davis Sara LouiseDirectorJul 25Sale69.6739927,7984,391Jul 27 04:19 PM
CPLAGILLIGAN J KEVINChairman & CEOJul 25Sale82.182,000164,35799,164Jul 27 04:18 PM
RNRCurtis RossSVP,Chief Underwriting OfficerJul 26Sale148.235,300785,60098,264Jul 27 04:18 PM
INTCRENDUCHINTALA VENKATA S MGroup President (CISA)Jul 25Option Exercise0.0029,270027,315Jul 27 04:18 PM
KEYMOONEY BETH EChairman and CEOJul 26Option Exercise6.46409,0952,641,9821,114,782Jul 27 04:16 PM
INTCSmith Stacy JGroup President, Mfg Ops SalesJul 25Option Exercise0.005,2690303,185Jul 27 04:16 PM
GPNBALDWIN ROBERT H B JRDirectorJul 25Sale95.0010,000950,000183,177Jul 27 04:16 PM
ABGingrich James AChief Operating OfficerJul 27Option Exercise17.0510,000170,500245,581Jul 27 04:15 PM
ABGingrich James AChief Operating OfficerJul 25Option Exercise17.0510,000170,500265,581Jul 27 04:15 PM
ABGingrich James AChief Operating OfficerJul 26Option Exercise17.0510,000170,500255,581Jul 27 04:15 PM
ABGingrich James AChief Operating OfficerJul 26Sale25.0020,000500,000245,581Jul 27 04:15 PM
ABGingrich James AChief Operating OfficerJul 25Sale24.9120,000498,250255,581Jul 27 04:15 PM
ABGingrich James AChief Operating OfficerJul 27Sale25.0020,000500,000235,581Jul 27 04:15 PM
INTCKrzanich Brian MCEOJul 25Option Exercise0.0013,3810514,157Jul 27 04:14 PM
AGMLynch Robert DaleEVP - Chief Financial OfficerJul 25Sale70.004,392307,44026,156Jul 27 04:14 PM
TIKRice Robert ADirectorJul 26Sale3.952,0007,908118,000Jul 27 04:13 PM
TIKRice Robert ADirectorJul 27Sale3.774,00015,086114,000Jul 27 04:13 PM
INTCBRYANT ANDY DChairmanJul 25Option Exercise0.003,0310514,663Jul 27 04:12 PM
GEComstock Elizabeth JVice ChairmanJul 25Option Exercise0.0015,0000190,717Jul 27 04:11 PM
INTCBryant Diane MEVP and Group PresidentJul 25Option Exercise0.004,4320114,542Jul 27 04:09 PM
INTCBryant Diane MEVP and Group PresidentJul 25Sale34.651,63956,787110,590Jul 27 04:09 PM
ALVJonsson ThomasGVP Corporate CommunicationsJul 26Sale108.551,240134,6022,311Jul 27 04:05 PM
BIGCAMPISI DAVID JCEO & PresidentJul 25Option Exercise37.1328,8751,072,129225,018Jul 27 04:05 PM
BIGCAMPISI DAVID JCEO & PresidentJul 25Sale50.0428,8751,444,905196,143Jul 27 04:05 PM
TROWOestreicher DavidCorp Secretary and VPJul 25Option Exercise47.2312,668598,36880,346Jul 27 04:05 PM
AKAMSALERNO FREDERIC VDirectorJul 27Buy46.835,000234,15062,192Jul 27 04:01 PM
STLO'Toole Richard L.DirectorJul 27Buy22.604,00090,40021,291Jul 27 04:00 PM
ARESARES CORPORATE OPPORTUNITIES F10% OwnerJul 25Sale38.506,772,781260,752,06945,419,497Jul 27 03:58 PM
OESXScribante John HRetiredJul 25Sale1.085,0005,40596,000Jul 27 03:48 PM
OESXScribante John HRetiredJul 26Sale1.0213,37613,65782,624Jul 27 03:48 PM
HSYBuck MichelePresident and CEOJul 26Sale108.0040043,200166,097Jul 27 03:27 PM
WLHGMT CAPITAL CORP10% OwnerJul 26Sale23.381,70039,7463,865,617Jul 27 03:14 PM
PNFPSamuel Ronald LVice ChairmanJul 25Sale66.023,000198,06064,794Jul 27 03:12 PM
CIVBMurray Dennis E JrDirectorMar 21Buy21.9750010,9856,300Jul 27 03:10 PM
BMIGRAS HORSTVP-InternationalJul 26Sale45.006,000270,00011,598Jul 27 03:10 PM
BMIJOHNSON RICHARD ESr. VP-Finance, Treas & CFOJul 26Sale45.1617,528791,640113,176Jul 27 03:09 PM
BMIBegale Fred JVP-EngineeringJul 26Option Exercise18.851,64030,9137,249Jul 27 03:07 PM
BMIBegale Fred JVP-EngineeringJul 26Sale45.001,64073,8005,609Jul 27 03:07 PM
BMIBERGUM WILLIAM R AVP-Gen. Counsel and SecretaryJul 26Option Exercise26.413,00079,21514,290Jul 27 03:06 PM
BMIBERGUM WILLIAM R AVP-Gen. Counsel and SecretaryJul 26Sale45.013,000135,03111,290Jul 27 03:06 PM
BMIStoll Kimberly KVP-Sales & MarketingJul 26Option Exercise18.392,83052,04714,573Jul 27 03:05 PM
BMIStoll Kimberly KVP-Sales & MarketingJul 26Sale45.012,830127,37911,743Jul 27 03:05 PM
CBSHABERDEEN JEFFERY DControllerJul 25Sale59.0968740,59840,232Jul 27 02:55 PM
CHCOLEGGE JEFFREY DALESVP, CAO & CIOJul 26Sale67.5589960,7237,151Jul 27 02:49 PM
WMFish James C JrPres, Chief Executive OfficerJul 26Option Exercise54.6430,2101,650,523181,372Jul 27 02:45 PM
TROWMORELAND KENNETH VCFO & Vice PresidentJul 26Option Exercise54.839,578525,190134,264Jul 27 02:36 PM
VLGEASUMAS JOHNVice PresidentJul 26Sale24.503,00073,500118,205Jul 27 02:16 PM
SYBTPriebe Stephen MDirectorJul 25Buy37.101194,40011,477Jul 27 01:55 PM
SYBTHerde Carl GDirectorJul 25Buy37.10592,20019,537Jul 27 01:54 PM
SYBTHeitzman Donna LDirectorJul 25Buy37.101194,400813Jul 27 01:52 PM
SYBTEDINGER CHARLES R IIIDirectorJul 25Buy37.101324,90035,669Jul 27 01:51 PM
NTGRWERDANN MICHAEL ASVP of Worldwide SalesJul 25Option Exercise39.535,625222,35631,875Jul 27 01:50 PM
NTGRWERDANN MICHAEL ASVP of Worldwide SalesJul 25Sale45.005,625253,12526,250Jul 27 01:50 PM
NTGRLO PATRICK CSChairman and CEOJul 25Option Exercise11.414,00045,640183,125Jul 27 01:50 PM
NTGRLO PATRICK CSChairman and CEOJul 25Sale45.004,000180,000179,125Jul 27 01:50 PM
NTGRFALCON MICHAEL FSVP, OperationsJul 25Option Exercise31.2852016,26639,106Jul 27 01:50 PM
NTGRFALCON MICHAEL FSVP, OperationsJul 25Sale45.0052023,40038,586Jul 27 01:50 PM
NTGRMERRILL MARK GChief Technology OfficerJul 25Option Exercise32.546,000195,24035,534Jul 27 01:50 PM
NTGRMERRILL MARK GChief Technology OfficerJul 25Sale45.006,000270,00029,534Jul 27 01:50 PM
SYBTBrown J McCauleyDirectorJul 25Buy37.10552,0501,175Jul 27 01:49 PM
SYBTNorthern RichardDirectorJul 25Buy37.101114,10017,035Jul 27 01:47 PM
SYBTTASMAN NORMANDirectorJul 25Buy37.101114,10060,026Jul 27 01:45 PM
ISRGSMITH LONNIE MDirectorJul 25Sale944.173,0002,832,498189,338Jul 27 01:44 PM
GGGGALLIVAN KAREN PARKVice PresidentJul 27Option Exercise21.1715,000317,55027,264Jul 27 01:42 PM
GGGGALLIVAN KAREN PARKVice PresidentJul 27Sale115.0012,2421,407,83015,022Jul 27 01:42 PM
CAROBRANDON W. SCOTTDirectorJul 25Sale33.986,557222,80791,352Jul 27 01:40 PM
MORNLandis Gail SDirectorJul 26Sale83.0050041,5007,881Jul 27 01:33 PM
MORNDesmond BevinHead of Global Markets & HRJul 26Sale83.213,002249,79032,088Jul 27 01:30 PM
JBLHoch ErichEVP, CEO, Jabil Packg SolutionJul 25Sale30.9952116,146209,444Jul 27 01:20 PM
STLDGraham Christopher ASenior Vice PresidentJul 25Sale38.055,021191,05722,332Jul 27 01:09 PM
STLDBUSSE KEITH EDirectorJul 25Sale38.424,965190,7771,003,546Jul 27 01:09 PM
ORAFIMI IV 2007 LTD.10% OwnerJul 26Sale57.007,202,646410,550,8220Jul 27 11:34 AM
IFFWinder Investment Pte Ltd10% OwnerJul 26Buy133.3680,00010,669,1769,581,793Jul 27 11:09 AM
TROWRobert W. SharpsVice PresidentJul 25Option Exercise45.7920,000915,866482,829Jul 27 10:23 AM
TCBIBaliff JonathanDirectorJul 26Buy81.55252,0391,195Jul 27 10:21 AM
ISRGLEVY ALAN JDirectorJul 25Option Exercise361.60999361,2412,900Jul 27 10:14 AM
ISRGLEVY ALAN JDirectorJul 25Sale948.69999947,7452,213Jul 27 10:14 AM
JBHTMcGee EricEVP Highway ServicesJul 26Sale93.371,368127,7321,640Jul 27 10:09 AM
JBHTKuhlow JohnSr VP/ControllerJul 25Sale93.7181075,9053,999Jul 27 10:09 AM
FNBCAMPBELL WILLIAM BDirectorJul 25Sale13.903,00041,70084,370Jul 27 09:55 AM
BMTCJenkins Scott MahaleyDirectorJul 26Option Exercise22.003,50077,00013,908Jul 27 09:31 AM
BMTCJenkins Scott MahaleyDirectorJul 26Sale43.753,500153,12010,408Jul 27 09:31 AM
VRTUCanekeratne Kris AChairman & CEOJul 25Sale33.556,000201,286587,920Jul 27 08:20 AM
VRTUCanekeratne Kris AChairman & CEOJul 26Sale33.716,000202,272581,920Jul 27 08:20 AM
DFRGThomson Neil HChief Financial OfficerJul 25Buy14.1312,357174,60428,581Jul 27 08:18 AM
FELESTONE ROBERT JSr. Vice PresidentJul 25Option Exercise12.5539,260492,56144,652Jul 27 08:10 AM
FELESTONE ROBERT JSr. Vice PresidentJul 25Sale45.0039,2601,766,70028,792Jul 27 08:10 AM
OPKFROST PHILLIP MD ET ALCEO & ChairmanJul 26Buy6.3936,200231,214163,833,343Jul 27 06:21 AM
open in screener